THOR ALTAIR DEB, 1931

Orbit data source: Space-Track

THOR ALTAIR DEB, 1931 is space debris in SSO originally from a launch on Fri, 10 Sep 1965 UTC launched from the Air Force Western Test Range (AFWTR). Debris objects in space refer to the collection of defunct objects orbiting the Earth. Examples of debris include non-operational satellites, rocket bodies, and fragments generated from explosions, collisions, or faulty payload assembly.

Loading next visibility...
Identifier
1931, 1965-072E
Orbit
SSO
Country
Flag of USUS
Related business
Manufacturer
Unknown
Mission
Spacecraft
Bus & Motor
Unknown
Mass
Unknown
Launch date (UTC)
1965-09-10 (60 years ago)
Launch vehicle
Unknown
Launch site
Air Force Western Test Range (AFWTR)
Object type
Payload
Rocket body
Debris
Shape & HBR
Unknown shape, 0.1 m
Radar Cross Section
Small (<0.1 m²)

Expand to show TLE details & history
Last TLE update: 1 day ago

TLE from 1 day ago
0 THOR ALTAIR DEB
1 01931U 65072E   25306.32934467  .00001543  00000-0  41173-3 0  9990
2 01931  99.0317 327.6899 0237857  21.5387 339.5603 14.34596035160317
Epoch: 2025-11-02T07:54Z
TLE epoch observation values (Epoch: 2025-11-02T07:54:15.379Z)
Latitude
-0.00007°
Longitude
167.2792°
Altitude
620.351 km
Speed
7.632 km/s
True Right ascension
21h 50m 45s
True Declination
0° 00' 00"
Sunlit
Object was in daylight at epoch
Visualization orbit readout
Latitude
Unknown
Longitude
Unknown
Altitude
Unknown
Speed
Unknown
Apparent Right ascension
Unknown
Apparent Declination
Unknown
Sunlit
N/A
Visualization observer readout
Local Sidereal Time
07:34:59
Azimuth
Unknown
Elevation
Unknown
Doppler factor
Unknown
Orbital elements
Apogee altitude
943.67 km
Perigee altitude
603.454 km
Semi-major axis
7,151.699 km
Eccentricity
0.02379
Inclination
99.0317°
RAAN
327.6899°
Arg. of periapsis
21.5387°
True anomaly
338.58125°
Mean anomaly
339.5603°
Eccentric anomaly
339.07354°
Mean motion
3.58864 °/min
Orbital period
100.32 mins
BSTAR
0.00041173
Loading maneuver chart data...
Computing Atmospheric mass density...
Loading historical data...
Loading historical data...
Loading historical data...
Loading historical data...
Loading historical data...
Loading historical data...
Loading historical data...

Documentation

Showing up to 5 results
|